Regional Weather Roundup
Issued by NWS Jackson, KY

Home | Current Version | Previous Version | Graphics & Text | Print | Product List | Glossary On
Versions: 1 2 3 4 5 6 7 8 9 10 11 12 13 14 15 16 17 18 19 20 21 22 23 24 25 26 27 28 29 30 31 32 33 34 35 36 37 38 39 40 41 42 43 44 45 46 47 48 49 50
000
ASUS43 KJKL 302205
RWRJKL

EAST KENTUCKY HOURLY WEATHER ROUNDUP
NATIONAL WEATHER SERVICE JACKSON KY
600 PM EDT SAT AUG 30 2014

NOTE: "FAIR" INDICATES FEW OR NO CLOUDS BELOW 12,000 FEET WITH
NO SIGNIFICANT WEATHER AND/OR OBSTRUCTIONS TO VISIBILITY.

* THESE REPORTS ARE NOT UNDER NWS QUALITY CONTROL AND MAY NOT
  REPORT WEATHER SUCH AS PRECIPITATION AND FOG.

KYZ079-080-083-085-087-088-110-112-115-119-120-302300
...EASTERN KENTUCKY...

CITY           SKY/WX    TMP DP  RH WIND       PRES   REMARKS
JACKSON        PTSUNNY   84  68  58 VRB5      30.08S
LONDON         PTSUNNY   87  66  49 SW8       30.08S
SOMERSET*      CLOUDY    82  66  57 CALM      30.07S
MONTICELLO*    MOSUNNY   85  72  65 SE6       30.07F HX  91
WILLIAMSBURG*  SUNNY     84  68  58 S3        30.07F
MIDDLESBORO*   MOSUNNY   87  68  53 SW3       30.08S HX  90
HARLAN APT*    PTCLDY    82  64  54 MISG      30.10S
BLACK MTN*       N/A     73  66  78 E1          N/A
PIKEVILLE APT* PTSUNNY   84  70  61 CALM      30.09F
BIG SANDY*     PTCLDY    87  69  53 CALM      30.07F HX  91
MOREHEAD APT*  PTCLDY    84  66  54 S8G15     30.07S
$$

KYZ035-036-041-042-044-050-067-078-099-302300
...CENTRAL KENTUCKY...

CITY           SKY/WX    TMP DP  RH WIND       PRES   REMARKS
MT STERLING*   PTSUNNY   82  70  65 SW3       30.07R
FLEMING/MASON* RAIN      73  68  86 W15       30.07R
DANVILLE*      CLOUDY    82  68  61 SW5       30.07S
RICHMOND*      CLOUDY    84  66  54 SW5       30.05S
LEXINGTON      CLOUDY    84  68  58 SW7       30.05S
FRANKFORT      CLOUDY    82  70  66 SW8       30.03R
$$

KYZ091>093-OHZ055-061-077-WVZ005-015-034-035-042-302300
...SOUTHERN OHIO/WEST VIRGINIA...

CITY           SKY/WX    TMP DP  RH WIND       PRES   REMARKS
COVINGTON      LGT RAIN  75  70  84 S9        30.04R
COLUMBUS       PTSUNNY   90  65  43 SW14      29.99F HX  92
DAYTON         PTSUNNY   82  68  62 SW10      30.01F
WILMINGTON     LGT RAIN  77  68  73 S8        30.02R
HUNTINGTON     MOSUNNY   87  67  51 SW6       30.03F HX  90
CHARLESTON     MOSUNNY   88  66  48 SW8       30.05F HX  90
PINEVILLE*     SUNNY     82  73  75 MISG      30.16F
BECKLEY        MOSUNNY   82  60  47 W3        30.17F
BLUEFIELD      SUNNY     82  61  48 VRB7      30.21F
$$

VAZ002-007-008-TNZ017-027-036-066-071-302300
...SOUTHWEST VIRGINIA/EAST TENNESSEE...

CITY           SKY/WX    TMP DP  RH WIND       PRES   REMARKS
WISE*          MOSUNNY   81  61  50 S3        30.19S
JONESVILLE*      N/A     86  66  51 CALM      30.11S
ABINGDON*      CLOUDY    83  66  56 CALM      30.15S
BRISTOL        PTSUNNY   85  65  51 VRB3      30.11S
KNOXVILLE      PTSUNNY   79  71  76 CALM      30.07S
OAK RIDGE      MOSUNNY   81  73  76 CALM      30.08F
CROSSVILLE     MOSUNNY   81  67  62 S6        30.10F
NASHVILLE      CLOUDY    80  72  76 N5        30.03F
$$

...KEY TO REMARKS...
VSB - VISIBILITY IN MILES
WCI - WIND CHILL INDEX
HX  - HEAT INDEX

$$


USA.gov is the U.S. government's official web portal to all federal, state and local government web resources and services.